Zurück zum Katalog

STARLINK-5039

AktivKommunikationVLEO
NORAD 57247·PAYLOAD·🇺🇸 United States

Gestartet Jul 7, 2023 von Vandenberg Space Force Base

Loading…

Nächste Überflüge (nächste 24 Stunden)

TLE

AktuellSource: CelesTrak SupGP

Epoche: Sep 15, 2026, 02:11 UTC

1 57247C 23094AF  26258.09145833 -.00037198  00000+0 -13472-2 0  2585
2 57247  43.0025  29.8919 0001917 269.9822 342.0182 15.27598489    14

Verfolge STARLINK-5039 in Echtzeit mit AllMySat

Download on the App Store